• In Lithuania
  • List of Countries
  • For 7 days
  • Water Temperature
  • Satellite Maps
  • Weather Map
  • Weather Widgets
  • user-avatar
    Login

    Hourly Weather Klagenfurt

    Today, 18 January, Thursday

    Time Temperature Precipitation Wind Pressure Humidity
    00:00 -2°C° 0.1 mm 1 mps 683 mmHg 75%
    01:00 -2°C° 0.1 mm 1 mps 684 mmHg 76%
    02:00 -2°C° 0.1 mm 1 mps 684 mmHg 76%
    03:00 -2°C° 0.1 mm 1 mps 685 mmHg 77%
    04:00 -2°C° 0.1 mm 1 mps 685 mmHg 78%
    05:00 -2°C° 0.1 mm 1 mps 685 mmHg 77%
    06:00 -2°C° 0.1 mm 1 mps 685 mmHg 77%
    07:00 -2°C° 0.1 mm 1 mps 685 mmHg 77%
    08:00 -1°C° 0 mm 1 mps 685 mmHg 73%
    09:00 0°C° 0 mm 1 mps 685 mmHg 69%
    10:00 +1°C° 0 mm 1 mps 685 mmHg 65%
    11:00 +1°C° 0 mm 2 mps 685 mmHg 62%
    12:00 +2°C° 0 mm 2 mps 684 mmHg 59%
    13:00 +1°C° 0 mm 3 mps 684 mmHg 57%
    14:00 +1°C° 0 mm 3 mps 683 mmHg 61%
    15:00 +1°C° 0 mm 2 mps 683 mmHg 64%
    16:00 +1°C° 0 mm 2 mps 683 mmHg 68%
    17:00 -1°C° 0 mm 2 mps 682 mmHg 72%
    18:00 -2°C° 0 mm 2 mps 682 mmHg 76%
    19:00 -3°C° 0 mm 2 mps 682 mmHg 80%
    20:00 -3°C° 0 mm 2 mps 682 mmHg 80%
    21:00 -3°C° 0 mm 2 mps 682 mmHg 81%
    22:00 -3°C° 0 mm 2 mps 682 mmHg 81%
    23:00 -3°C° 0 mm 2 mps 682 mmHg 83%

    Tomorrow, 19 January, Friday

    Time Temperature Precipitation Wind Pressure Humidity
    00:00 -2°C° 0 mm 2 mps 682 mmHg 84%
    01:00 -2°C° 0 mm 2 mps 682 mmHg 86%
    02:00 -2°C° 0 mm 2 mps 681 mmHg 87%
    03:00 -2°C° 0 mm 2 mps 681 mmHg 89%
    04:00 -2°C° 0 mm 2 mps 681 mmHg 90%
    05:00 -2°C° 0.1 mm 2 mps 681 mmHg 90%
    06:00 -2°C° 0.1 mm 2 mps 681 mmHg 91%
    07:00 +1°C° 0.1 mm 1 mps 681 mmHg 92%
    08:00 +1°C° 0.2 mm 1 mps 682 mmHg 90%
    09:00 +2°C° 0.2 mm 1 mps 682 mmHg 89%
    10:00 +3°C° 0.2 mm 1 mps 683 mmHg 87%
    11:00 +3°C° 0.4 mm 1 mps 683 mmHg 87%
    12:00 +3°C° 0.4 mm 1 mps 683 mmHg 86%
    13:00 +4°C° 0.4 mm 1 mps 683 mmHg 86%
    14:00 +3°C° 1.3 mm 1 mps 683 mmHg 88%
    15:00 +2°C° 1.3 mm 1 mps 683 mmHg 89%
    16:00 +2°C° 1.3 mm 1 mps 683 mmHg 91%
    17:00 +1°C° 0.9 mm 1 mps 683 mmHg 91%
    18:00 +1°C° 0.9 mm 1 mps 684 mmHg 91%
    19:00 0°C° 0.9 mm 1 mps 684 mmHg 91%
    20:00 0°C° 0.6 mm 1 mps 685 mmHg 91%
    21:00 0°C° 0.6 mm 1 mps 685 mmHg 92%
    22:00 -1°C° 0.6 mm 1 mps 685 mmHg 92%
    23:00 -1°C° 0.2 mm 1 mps 685 mmHg 92%

    Day after tomorrow, 20 January, Saturday

    Time Temperature Precipitation Wind Pressure Humidity
    00:00 -1°C° 0.2 mm 1 mps 685 mmHg 93%
    01:00 -2°C° 0.2 mm 1 mps 685 mmHg 93%
    02:00 -2°C° 0 mm 1 mps 685 mmHg 93%
    03:00 -3°C° 0 mm 1 mps 685 mmHg 93%
    04:00 -3°C° 0 mm 1 mps 685 mmHg 93%
    05:00 -3°C° 0 mm 1 mps 685 mmHg 93%
    06:00 -3°C° 0 mm 1 mps 685 mmHg 92%
    07:00 -3°C° 0 mm 1 mps 685 mmHg 92%
    08:00 -2°C° 0 mm 1 mps 685 mmHg 89%
    09:00 -2°C° 0 mm 0 mps 685 mmHg 86%
    10:00 -1°C° 0 mm 0 mps 685 mmHg 83%
    11:00 0°C° 0 mm 0 mps 685 mmHg 80%
    12:00 +1°C° 0 mm 0 mps 684 mmHg 77%
    13:00 +1°C° 0 mm 0 mps 684 mmHg 74%
    14:00 +1°C° 0 mm 0 mps 684 mmHg 77%
    15:00 0°C° 0 mm 0 mps 684 mmHg 80%
    16:00 0°C° 0 mm 0 mps 683 mmHg 83%
    17:00 -1°C° 0 mm 0 mps 683 mmHg 85%
    18:00 -2°C° 0 mm 0 mps 683 mmHg 87%
    19:00 -3°C° 0 mm 0 mps 683 mmHg 89%
    20:00 -4°C° 0 mm 0 mps 683 mmHg 89%
    21:00 -4°C° 0 mm 0 mps 683 mmHg 89%
    22:00 -4°C° 0 mm 0 mps 683 mmHg 89%
    23:00 -3°C° 0.1 mm 1 mps 683 mmHg 89%

    21 January, Sunday

    Time Temperature Precipitation Wind Pressure Humidity
    00:00 -2°C° 0.1 mm 1 mps 683 mmHg 90%
    01:00 -2°C° 0.1 mm 1 mps 684 mmHg 90%
    02:00 -3°C° 0.1 mm 1 mps 684 mmHg 90%
    03:00 -3°C° 0.1 mm 1 mps 684 mmHg 90%
    04:00 -3°C° 0.1 mm 1 mps 685 mmHg 90%
    05:00 -3°C° 0 mm 1 mps 685 mmHg 89%
    06:00 -4°C° 0 mm 1 mps 686 mmHg 88%
    07:00 -6°C° 0 mm 1 mps 687 mmHg 87%
    08:00 -3°C° 0 mm 1 mps 688 mmHg 82%
    09:00 -2°C° 0 mm 1 mps 689 mmHg 78%
    10:00 -1°C° 0 mm 1 mps 689 mmHg 73%
    11:00 0°C° 0 mm 1 mps 690 mmHg 67%
    12:00 -2°C° 0 mm 2 mps 690 mmHg 62%
    13:00 -1°C° 0 mm 2 mps 690 mmHg 56%
    14:00 -1°C° 0 mm 2 mps 690 mmHg 60%
    15:00 0°C° 0 mm 1 mps 690 mmHg 65%
    16:00 0°C° 0 mm 1 mps 691 mmHg 69%
    17:00 -2°C° 0 mm 1 mps 691 mmHg 71%
    18:00 -3°C° 0 mm 1 mps 691 mmHg 73%
    19:00 -5°C° 0 mm 0 mps 691 mmHg 74%
    20:00 -5°C° 0 mm 0 mps 691 mmHg 75%
    21:00 -3°C° 0 mm 1 mps 691 mmHg 76%
    22:00 -3°C° 0 mm 1 mps 691 mmHg 77%
    23:00 -3°C° 0.2 mm 1 mps 691 mmHg 79%

    22 January, Monday

    Time Temperature Precipitation Wind Pressure Humidity
    00:00 -3°C° 0.2 mm 1 mps 691 mmHg 81%
    01:00 -3°C° 0.2 mm 1 mps 691 mmHg 83%
    02:00 -3°C° 0.2 mm 1 mps 690 mmHg 83%
    03:00 -3°C° 0.2 mm 1 mps 690 mmHg 83%
    04:00 -3°C° 0.2 mm 1 mps 690 mmHg 83%
    05:00 -3°C° 0.2 mm 1 mps 690 mmHg 84%
    06:00 -3°C° 0.2 mm 1 mps 690 mmHg 84%
    07:00 -3°C° 0.2 mm 1 mps 689 mmHg 84%
    08:00 -2°C° 0.1 mm 1 mps 690 mmHg 82%
    09:00 -1°C° 0.1 mm 1 mps 690 mmHg 80%
    10:00 0°C° 0.1 mm 1 mps 690 mmHg 79%
    11:00 +1°C° 0.1 mm 1 mps 691 mmHg 78%
    12:00 +2°C° 0.1 mm 1 mps 691 mmHg 78%
    13:00 +3°C° 0.1 mm 1 mps 691 mmHg 77%
    14:00 +3°C° 0 mm 1 mps 691 mmHg 80%
    15:00 +3°C° 0 mm 1 mps 692 mmHg 83%
    16:00 +2°C° 0 mm 1 mps 692 mmHg 87%
    17:00 +2°C° 0 mm 1 mps 692 mmHg 87%
    18:00 +1°C° 0 mm 1 mps 692 mmHg 88%
    19:00 0°C° 0 mm 1 mps 692 mmHg 89%
    20:00 0°C° 0 mm 1 mps 693 mmHg 89%
    21:00 0°C° 0 mm 1 mps 693 mmHg 89%
    22:00 0°C° 0 mm 1 mps 693 mmHg 89%
    23:00 0°C° 0.1 mm 1 mps 693 mmHg 89%

    23 January, Tuesday

    Time Temperature Precipitation Wind Pressure Humidity
    00:00 +1°C° 0.1 mm 1 mps 693 mmHg 89%
    01:00 +1°C° 0.1 mm 1 mps 693 mmHg 89%
    02:00 +1°C° 0 mm 1 mps 693 mmHg 88%
    03:00 +1°C° 0 mm 1 mps 693 mmHg 88%
    04:00 +1°C° 0 mm 1 mps 693 mmHg 88%
    05:00 +1°C° 0 mm 1 mps 694 mmHg 87%
    06:00 +1°C° 0 mm 1 mps 694 mmHg 86%
    07:00 +1°C° 0 mm 1 mps 694 mmHg 85%
    08:00 +3°C° 0 mm 1 mps 695 mmHg 85%
    09:00 +4°C° 0 mm 1 mps 695 mmHg 85%
    10:00 +5°C° 0 mm 1 mps 696 mmHg 85%
    11:00 +6°C° 0 mm 1 mps 696 mmHg 84%
    12:00 +7°C° 0 mm 1 mps 696 mmHg 84%
    13:00 +8°C° 0 mm 1 mps 697 mmHg 83%
    14:00 +7°C° 0 mm 1 mps 697 mmHg 86%
    15:00 +6°C° 0 mm 1 mps 697 mmHg 88%
    16:00 +6°C° 0 mm 1 mps 697 mmHg 91%
    17:00 +5°C° 0 mm 1 mps 697 mmHg 91%
    18:00 +4°C° 0 mm 1 mps 698 mmHg 91%
    19:00 +3°C° 0 mm 1 mps 698 mmHg 91%
    20:00 +2°C° 0 mm 1 mps 698 mmHg 90%
    21:00 +2°C° 0 mm 1 mps 698 mmHg 90%
    22:00 +2°C° 0 mm 1 mps 699 mmHg 89%
    23:00 +2°C° 0 mm 1 mps 699 mmHg 89%
    Show more